THORAD DELTA 1 DEB, 19183

Orbit data source: Space-Track

THORAD DELTA 1 DEB, 19183 is space debris in LEO originally from a launch on Fri, 15 Nov 1974 UTC launched from the Air Force Western Test Range (AFWTR). Debris objects in space refer to the collection of defunct objects orbiting the Earth. Examples of debris include non-operational satellites, rocket bodies, and fragments generated from explosions, collisions, or faulty payload assembly.

Loading next visibility...
Identifier
19183, 1974-089FD
Orbit
LEO
Country
Flag of USUS
Related business
Manufacturer
Unknown
Mission
Spacecraft
Bus & Motor
Unknown
Mass
Unknown
Launch date (UTC)
1974-11-15 (51 years ago)
Launch vehicle
Unknown
Launch site
Air Force Western Test Range (AFWTR)
Object type
Payload
Rocket body
Debris
Shape & HBR
Unknown shape, 0.1 m
Radar Cross Section
Small (<0.1 m²)

Expand to show TLE details & history
Last TLE update: 1 day ago

TLE from 1 day ago
0 THORAD DELTA 1 DEB
1 19183U 74089FD  26125.49390708  .00001111  00000-0  23378-2 0  9995
2 19183 103.5253 316.4389 0185650  11.3038  16.0732 13.28807776775061
Epoch: 2026-05-05T11:51Z
TLE epoch observation values (Epoch: 2026-05-05T11:51:13.571Z)
Latitude
27.18072°
Longitude
-91.79395°
Altitude
1,020.16 km
Speed
7.409 km/s
True Right ascension
20h 37m 31s
True Declination
27° 02' 46"
Sunlit
Object was in daylight at epoch
Visualization orbit readout
Latitude
Unknown
Longitude
Unknown
Altitude
Unknown
Speed
Unknown
Apparent Right ascension
Unknown
Apparent Declination
Unknown
Sunlit
N/A
Visualization observer readout
Local Sidereal Time
03:02:06
Azimuth
Unknown
Elevation
Unknown
Doppler factor
Unknown
Orbital elements
Apogee altitude
1,288.561 km
Perigee altitude
1,009.085 km
Semi-major axis
7,526.96 km
Eccentricity
0.01857
Inclination
103.5253°
RAAN
316.4389°
Arg. of periapsis
11.3038°
True anomaly
16.67561°
Mean anomaly
16.0732°
Eccentric anomaly
16.37305°
Mean motion
3.32364 °/min
Orbital period
108.32 mins
BSTAR
0.0023378
Loading maneuver chart data...
Computing Atmospheric mass density...

Documentation

Showing up to 5 results
|